Weather in Beyagac

Turkey     37°14′14″N   28°54′10″E
temp.,
°C
wind,
m/s
gust,
m/s
humid.,
%
clouds,
%
prec.,
mm/h
press.,
hPa
HPBL,
m
23 june, wed
wed2300:00+17nne22570 0.0 101514
03:00+16nne22600 0.0 101512
06:00+15nne22650 0.0 101514
09:00+21n24480 0.0 10151078
12:00+24n35360 0.0 10151688
15:00+27nnw56290 0.0 10142114
18:00+26n45310 0.0 10142092
21:00+21nne22460 0.0 101516
24 june, thu
thu2400:00+20nne33510 0.0 101623
03:00+18n22570 0.0 101514
06:00+17nne33640 0.0 101523
09:00+22n35470 0.0 10151098
12:00+25nne56340 0.0 10141723
15:00+27nne56300 0.0 10132217
18:00+27n57302 0.0 10122512
21:00+22n344217 0.0 101365
25 june, fri
fri2500:00+20n33530 0.0 101426
03:00+18nne33570 0.0 101432
06:00+17ne33660 0.0 101438
09:00+23ne35370 0.0 10131017
12:00+27ne45250 0.0 10131739
15:00+29nne55230 0.0 10122238
18:00+28n56260 0.0 10112227
21:00+23n34420 0.0 101264
26 june, sat
sat2600:00+21nne33480 0.0 101338
03:00+19ne33560 0.0 101330
06:00+18ne33630 0.0 101335
09:00+24nne46390 0.0 1013871
12:00+28ne56240 0.0 10111585
15:00+30nne45220 0.0 10112278
18:00+30n55220 0.0 10102457
21:00+24n33330 0.0 101118
27 june, sun
sun2700:00+22ne33370 0.0 101231
03:00+21ne22460 0.0 101218
06:00+20ne22520 0.0 101314
09:00+26nne23360 0.0 1012991
12:00+30nne33250 0.0 10122143
15:00+32nne43192 0.0 10103120
18:00+31n432055 0.0 10102499
21:00+25nne223023 0.0 101112